Fargo, ND

7:11 AM CST on January 18, 2018 (GMT -0600)
Hector International

Weather History for KFAR - October, 2012

Change the Weather History Date:

Friday, October 12, 2012

  Actual Average Record
Temperature  
Mean Temperature 41 °F 48 °F  
Max Temperature 54 °F 58 °F 84 °F (1956)
Min Temperature 27 °F 37 °F 13 °F (1919)
Degree Days  
Heating Degree Days 24 18  
Month to date heating degree days 261 184  
Since 1 July heating degree days 491 454  
Cooling Degree Days 0 0  
Month to date cooling degree days 0 0  
Year to date cooling degree days 795 548  
Moisture  
Dew Point 20 °F    
Average Humidity 53    
Maximum Humidity 81    
Minimum Humidity 24    
Precipitation  
Precipitation 0.00 in 0.07 in 1.23 in (2008)
Month to date precipitation 0.43 0.95  
Year to date precipitation 11.77 19.58  
Snow  
Snow 0.00 in 0.00 in 0.60 in (2006)
Month to date snowfall 1.4 0.1  
Since 1 July snowfall 1.4 0.1  
Since 1 September snowfall 1.4 0.1  
Snow Depth 0.00 in    
Sea Level Pressure  
Sea Level Pressure 30.19 in    
Wind  
Wind Speed 16 mph (SSE)    
Max Wind Speed 30 mph    
Max Gust Speed 37 mph    
Visibility 10 miles    
Events      
T = Trace of Precipitation, MM = Missing Value Source: NWS Daily Summary

Daily Weather History Graph

Daily Weather History Graph

Search for Another Location

Airport or City:

Trip Planner

Search our weather history database for the weather conditions in past years. The results will help you decide how hot, cold, wet, or windy it might be!

Date:

Astronomy

Oct. 12, 2012 Rise Set
Actual Time 7:41 AM CDT 6:44 PM CDT
Civil Twilight 7:11 AM CDT 7:15 PM CDT
Nautical Twilight 6:35 AM CDT 7:50 PM CDT
Astronomical Twilight 6:00 AM CDT 8:25 PM CDT
Moon 4:15 AM CDT (10/12) 5:03 PM CDT (10/12)
Length of Visible Light 12h 03m
Length of Day
11h 02m
Waning Crescent, 10% of the Moon is Illuminated
Oct 12
Waning Crescent
Oct 15
New
Oct 21
First Quarter
Oct 29
Full
Nov 6
Last Quarter

Hourly Weather History & Observations

Time (CDT) Temp. Windchill Dew Point Humidity Pressure Visibility Wind Dir Wind Speed Gust Speed Precip Events Conditions
12:53 AM 26.1 °F 19.4 °F 21.0 °F 81% 30.43 in 10.0 mi SE 5.8 mph - N/A   Clear
1:53 AM 28.0 °F 21.7 °F 21.0 °F 75% 30.43 in 10.0 mi South 5.8 mph - N/A   Clear
2:53 AM 30.2 °F 23.4 °F 21.2 °F 69% 30.39 in 10.0 mi SSE 6.9 mph - N/A   Clear
3:53 AM 30.9 °F 24.3 °F 21.9 °F 69% 30.41 in 10.0 mi SSE 6.9 mph - N/A   Clear
4:53 AM 30.0 °F 23.2 °F 21.9 °F 72% 30.40 in 10.0 mi South 6.9 mph - N/A   Clear
5:53 AM 28.9 °F 20.4 °F 21.0 °F 72% 30.39 in 10.0 mi South 9.2 mph - N/A   Clear
6:53 AM 30.0 °F 21.1 °F 21.0 °F 69% 30.39 in 10.0 mi SSE 10.4 mph - N/A   Clear
7:53 AM 30.9 °F 21.7 °F 21.0 °F 67% 30.38 in 10.0 mi SSE 11.5 mph - N/A   Clear
8:53 AM 32.0 °F 21.2 °F 21.0 °F 64% 30.36 in 10.0 mi South 16.1 mph - N/A   Clear
9:53 AM 36.0 °F 26.7 °F 23.0 °F 59% 30.34 in 10.0 mi SSE 15.0 mph - N/A   Clear
10:53 AM 41.0 °F 32.2 °F 23.0 °F 49% 30.30 in 10.0 mi SSE 18.4 mph 27.6 mph N/A   Clear
11:53 AM 44.6 °F 37.2 °F 23.0 °F 43% 30.24 in 10.0 mi South 17.3 mph 26.5 mph N/A   Mostly Cloudy
12:53 PM 46.9 °F - 21.0 °F 36% 30.23 in 10.0 mi SSE 24.2 mph 35.7 mph N/A   Overcast
1:53 PM 51.1 °F - 18.0 °F 27% 30.17 in 10.0 mi South 23.0 mph 29.9 mph N/A   Clear
2:53 PM 52.0 °F - 17.1 °F 25% 30.12 in 10.0 mi South 19.6 mph 33.4 mph N/A   Clear
3:53 PM 53.1 °F - 17.1 °F 24% 30.07 in 10.0 mi South 23.0 mph 34.5 mph N/A   Clear
4:53 PM 53.6 °F - 17.6 °F 24% 29.99 in 10.0 mi SSE 24.2 mph 35.7 mph N/A   Clear
5:53 PM 53.1 °F - 17.1 °F 24% 29.98 in 10.0 mi SSE 23.0 mph 32.2 mph N/A   Clear
6:53 PM 52.0 °F - 17.1 °F 25% 29.96 in 10.0 mi South 19.6 mph 28.8 mph N/A   Clear
7:53 PM 50.0 °F - 17.1 °F 27% 29.94 in 10.0 mi SSE 16.1 mph 23.0 mph N/A   Clear
8:53 PM 48.9 °F - 17.1 °F 28% 29.90 in 10.0 mi SSE 18.4 mph - N/A   Clear
9:53 PM 48.0 °F - 17.1 °F 29% 29.88 in 10.0 mi SSE 16.1 mph 23.0 mph N/A   Clear
10:53 PM 50.0 °F - 18.0 °F 28% 29.85 in 10.0 mi SSE 16.1 mph 24.2 mph N/A   Clear
11:53 PM 48.9 °F - 19.0 °F 31% 29.83 in 10.0 mi SSE 13.8 mph - N/A   Clear